Time,TemperatureF,DewpointF,PressureIn,WindDirection,WindDirectionDegrees,WindSpeedMPH,WindSpeedGustMPH,Humidity,HourlyPrecipIn,Conditions,Clouds,dailyrainin,SoftwareType,DateUTC
2013-08-13 00:00:00,80.6,51.9,29.91,NNW,338,1.3,1.3,37,0.00,,,0.00,VWS V14.01,2013-08-12 21:00:00,
2013-08-13 00:05:00,80.6,51.9,29.91,North,0,0.8,0.8,37,0.00,,,0.00,VWS V14.01,2013-08-12 21:05:00,
2013-08-13 00:10:00,80.6,51.9,29.91,NNW,338,3.8,3.8,37,0.00,,,0.00,VWS V14.01,2013-08-12 21:10:00,
2013-08-13 00:16:00,80.6,51.9,29.91,NNW,338,4.6,4.6,37,0.00,,,0.00,VWS V14.01,2013-08-12 21:16:00,
2013-08-13 00:21:00,80.6,51.9,29.91,NNW,338,0.0,0.0,37,0.00,,,0.00,VWS V14.01,2013-08-12 21:21:00,
2013-08-13 00:26:00,80.4,51.7,29.91,NNW,338,4.6,4.6,37,0.00,,,0.00,VWS V14.01,2013-08-12 21:26:00,
2013-08-13 00:31:00,80.4,51.7,29.91,NW,315,5.8,5.8,37,0.00,,,0.00,VWS V14.01,2013-08-12 21:31:00,
2013-08-13 00:36:00,80.4,51.7,29.91,NW,315,0.0,0.0,37,0.00,,,0.00,VWS V14.01,2013-08-12 21:36:00,
2013-08-13 00:41:00,80.2,51.6,29.91,NNW,338,0.0,0.0,37,0.00,,,0.00,VWS V14.01,2013-08-12 21:41:00,
2013-08-13 00:46:00,80.1,51.5,29.92,NW,315,0.0,0.0,37,0.00,,,0.00,VWS V14.01,2013-08-12 21:46:00,
2013-08-13 00:51:00,79.9,52.0,29.91,NNW,338,1.5,2.6,38,0.00,,,0.00,VWS V14.01,2013-08-12 21:51:00,
2013-08-13 00:56:00,79.9,52.0,29.91,NNW,338,2.0,2.0,38,0.00,,,0.00,VWS V14.01,2013-08-12 21:56:00,
2013-08-13 01:01:00,79.7,51.8,29.91,NNW,338,0.0,0.0,38,0.00,,,0.00,VWS V14.01,2013-08-12 22:01:00,
2013-08-13 01:06:00,79.7,51.8,29.91,NNW,338,3.5,5.1,38,0.00,,,0.00,VWS V14.01,2013-08-12 22:06:00,
2013-08-13 01:11:00,79.7,51.8,29.91,NNW,338,2.9,4.9,38,0.00,,,0.00,VWS V14.01,2013-08-12 22:11:00,
2013-08-13 01:16:00,79.7,51.8,29.91,NW,315,3.8,4.9,38,0.00,,,0.00,VWS V14.01,2013-08-12 22:16:00,
2013-08-13 01:21:00,79.7,51.8,29.91,NW,315,3.1,3.1,38,0.00,,,0.00,VWS V14.01,2013-08-12 22:21:00,
2013-08-13 01:26:00,79.7,51.8,29.91,NW,315,4.0,4.0,38,0.00,,,0.00,VWS V14.01,2013-08-12 22:26:00,
2013-08-13 01:32:00,79.9,52.0,29.91,NW,315,4.9,5.3,38,0.00,,,0.00,VWS V14.01,2013-08-12 22:32:00,
2013-08-13 01:37:00,79.9,52.0,29.91,North,0,3.8,3.8,38,0.00,,,0.00,VWS V14.01,2013-08-12 22:37:00,
2013-08-13 01:42:00,80.1,52.2,29.91,NW,315,5.3,5.3,38,0.00,,,0.00,VWS V14.01,2013-08-12 22:42:00,
2013-08-13 01:47:00,79.9,52.0,29.91,NW,315,7.3,7.3,38,0.00,,,0.00,VWS V14.01,2013-08-12 22:47:00,
2013-08-13 01:52:00,80.1,52.2,29.90,NW,315,4.9,4.9,38,0.00,,,0.00,VWS V14.01,2013-08-12 22:52:00,
2013-08-13 01:57:00,80.1,52.2,29.90,NNW,338,8.2,8.2,38,0.00,,,0.00,VWS V14.01,2013-08-12 22:57:00,
2013-08-13 02:02:00,79.9,52.0,29.90,NNW,338,4.4,4.9,38,0.00,,,0.00,VWS V14.01,2013-08-12 23:02:00,
2013-08-13 02:07:00,79.9,52.0,29.90,NNW,338,4.0,4.0,38,0.00,,,0.00,VWS V14.01,2013-08-12 23:07:00,
2013-08-13 02:12:00,79.9,52.0,29.90,NNW,338,7.8,7.8,38,0.00,,,0.00,VWS V14.01,2013-08-12 23:12:00,
2013-08-13 02:17:00,80.1,52.2,29.90,NNW,338,5.1,5.1,38,0.00,,,0.00,VWS V14.01,2013-08-12 23:17:00,
2013-08-13 02:22:00,79.9,52.0,29.90,NNW,338,5.3,5.3,38,0.00,,,0.00,VWS V14.01,2013-08-12 23:22:00,
2013-08-13 02:27:00,79.9,52.7,29.90,NW,315,2.2,2.2,39,0.00,,,0.00,VWS V14.01,2013-08-12 23:27:00,
2013-08-13 02:32:00,79.7,52.5,29.90,North,0,2.9,2.9,39,0.00,,,0.00,VWS V14.01,2013-08-12 23:32:00,
2013-08-13 02:38:00,79.5,52.4,29.90,NNW,338,4.9,4.9,39,0.00,,,0.00,VWS V14.01,2013-08-12 23:38:00,
2013-08-13 02:43:00,79.7,52.5,29.90,NNW,338,4.2,4.4,39,0.00,,,0.00,VWS V14.01,2013-08-12 23:43:00,
2013-08-13 02:48:00,79.7,52.5,29.90,NNW,338,4.9,4.9,39,0.00,,,0.00,VWS V14.01,2013-08-12 23:48:00,
2013-08-13 02:53:00,79.7,52.5,29.89,NNW,338,6.7,6.7,39,0.00,,,0.00,VWS V14.01,2013-08-12 23:53:00,
2013-08-13 02:58:00,79.7,52.5,29.90,NW,315,4.9,4.9,39,0.00,,,0.00,VWS V14.01,2013-08-12 23:58:00,
2013-08-13 03:03:00,79.7,52.5,29.89,NNW,338,4.6,4.6,39,0.00,,,0.00,VWS V14.01,2013-08-13 00:03:00,
2013-08-13 03:08:00,79.7,52.5,29.89,NW,315,4.6,4.6,39,0.00,,,0.00,VWS V14.01,2013-08-13 00:08:00,
2013-08-13 03:13:00,79.5,53.0,29.89,NNW,338,0.8,0.8,40,0.00,,,0.00,VWS V14.01,2013-08-13 00:13:00,
2013-08-13 03:18:00,79.3,52.9,29.89,NW,315,4.4,4.4,40,0.00,,,0.00,VWS V14.01,2013-08-13 00:18:00,
2013-08-13 03:23:00,79.3,52.9,29.89,NW,315,2.4,2.4,40,0.00,,,0.00,VWS V14.01,2013-08-13 00:23:00,
2013-08-13 03:28:00,79.5,53.0,29.89,NNW,338,6.4,6.4,40,0.00,,,0.00,VWS V14.01,2013-08-13 00:28:00,
2013-08-13 03:33:00,79.5,53.0,29.89,NW,315,5.1,5.1,40,0.00,,,0.00,VWS V14.01,2013-08-13 00:33:00,
2013-08-13 03:38:00,79.5,52.4,29.89,NNW,338,5.5,5.5,39,0.00,,,0.00,VWS V14.01,2013-08-13 00:38:00,
2013-08-13 03:43:00,79.5,53.0,29.89,NNW,338,5.8,5.8,40,0.00,,,0.00,VWS V14.01,2013-08-13 00:43:00,
2013-08-13 03:48:00,79.3,52.9,29.89,NNW,338,4.2,5.1,40,0.00,,,0.00,VWS V14.01,2013-08-13 00:48:00,
2013-08-13 03:53:00,79.3,52.9,29.89,NW,315,5.8,6.7,40,0.00,,,0.00,VWS V14.01,2013-08-13 00:53:00,
2013-08-13 03:58:00,79.3,52.9,29.89,NNW,338,5.1,5.5,40,0.00,,,0.00,VWS V14.01,2013-08-13 00:58:00,
2013-08-13 04:03:00,79.0,52.6,29.89,NNW,338,4.6,4.6,40,0.00,,,0.00,VWS V14.01,2013-08-13 01:03:00,
2013-08-13 04:08:00,79.0,52.6,29.89,NNW,338,2.0,4.2,40,0.00,,,0.00,VWS V14.01,2013-08-13 01:08:00,
2013-08-13 04:13:00,79.0,52.6,29.89,NNW,338,2.4,2.4,40,0.00,,,0.00,VWS V14.01,2013-08-13 01:13:00,
2013-08-13 04:18:00,79.0,52.6,29.88,WNW,292,3.3,6.0,40,0.00,,,0.00,VWS V14.01,2013-08-13 01:18:00,
2013-08-13 04:23:00,79.0,52.6,29.88,NW,315,3.5,6.0,40,0.00,,,0.00,VWS V14.01,2013-08-13 01:23:00,
2013-08-13 04:28:00,78.8,52.4,29.88,NNW,338,5.5,5.5,40,0.00,,,0.00,VWS V14.01,2013-08-13 01:28:00,
2013-08-13 04:33:00,78.8,52.4,29.88,NNW,338,4.6,7.1,40,0.00,,,0.00,VWS V14.01,2013-08-13 01:33:00,
2013-08-13 04:39:00,78.8,52.4,29.89,NNW,338,2.2,2.2,40,0.00,,,0.00,VWS V14.01,2013-08-13 01:39:00,
2013-08-13 04:44:00,78.8,52.4,29.88,NW,315,4.2,4.2,40,0.00,,,0.00,VWS V14.01,2013-08-13 01:44:00,
2013-08-13 04:49:00,78.6,52.9,29.88,WNW,292,3.5,3.5,41,0.00,,,0.00,VWS V14.01,2013-08-13 01:49:00,
2013-08-13 04:54:00,78.6,52.9,29.88,NNW,338,5.1,5.3,41,0.00,,,0.00,VWS V14.01,2013-08-13 01:54:00,
2013-08-13 04:59:00,78.4,52.7,29.88,NNW,338,6.2,6.2,41,0.00,,,0.00,VWS V14.01,2013-08-13 01:59:00,
2013-08-13 05:04:00,78.6,52.9,29.88,NW,315,6.2,6.2,41,0.00,,,0.00,VWS V14.01,2013-08-13 02:04:00,
2013-08-13 05:09:00,78.4,52.7,29.88,NNW,338,5.1,5.1,41,0.00,,,0.00,VWS V14.01,2013-08-13 02:09:00,
2013-08-13 05:14:00,78.4,52.7,29.88,NW,315,4.4,4.4,41,0.00,,,0.00,VWS V14.01,2013-08-13 02:14:00,
2013-08-13 05:19:00,78.4,52.7,29.88,NNW,338,6.7,6.7,41,0.00,,,0.00,VWS V14.01,2013-08-13 02:19:00,
2013-08-13 05:24:00,78.4,52.7,29.89,NW,315,4.4,4.4,41,0.00,,,0.00,VWS V14.01,2013-08-13 02:24:00,
2013-08-13 05:29:00,78.4,52.7,29.88,North,0,2.9,3.8,41,0.00,,,0.00,VWS V14.01,2013-08-13 02:29:00,
2013-08-13 05:34:00,78.4,52.7,29.88,NNW,338,2.2,2.2,41,0.00,,,0.00,VWS V14.01,2013-08-13 02:34:00,
2013-08-13 05:39:00,78.4,52.7,29.88,WNW,292,3.1,5.1,41,0.00,,,0.00,VWS V14.01,2013-08-13 02:39:00,
2013-08-13 05:44:00,78.4,52.7,29.88,NNW,338,7.6,7.6,41,0.00,,,0.00,VWS V14.01,2013-08-13 02:44:00,
2013-08-13 05:49:00,78.8,53.1,29.88,NNW,338,8.0,8.0,41,0.00,,,0.00,VWS V14.01,2013-08-13 02:49:00,
2013-08-13 05:54:00,78.8,53.1,29.88,NNW,338,4.6,4.6,41,0.00,,,0.00,VWS V14.01,2013-08-13 02:54:00,
2013-08-13 05:59:00,79.0,52.6,29.88,NW,315,6.0,7.1,40,0.00,,,0.00,VWS V14.01,2013-08-13 02:59:00,
2013-08-13 06:05:00,79.0,52.6,29.89,North,0,5.1,5.1,40,0.00,,,0.00,VWS V14.01,2013-08-13 03:05:00,
2013-08-13 06:10:00,79.0,52.6,29.89,NNW,338,5.1,5.8,40,0.00,,,0.00,VWS V14.01,2013-08-13 03:10:00,
2013-08-13 06:15:00,79.0,52.6,29.89,NW,315,3.8,3.8,40,0.00,,,0.00,VWS V14.01,2013-08-13 03:15:00,
2013-08-13 06:20:00,78.8,52.4,29.89,NW,315,3.5,3.5,40,0.00,,,0.00,VWS V14.01,2013-08-13 03:20:00,
2013-08-13 06:26:00,79.0,52.6,29.89,NW,315,6.0,7.1,40,0.00,,,0.00,VWS V14.01,2013-08-13 03:26:00,
2013-08-13 06:31:00,79.0,52.6,29.89,NW,315,6.4,7.3,40,0.00,,,0.00,VWS V14.01,2013-08-13 03:31:00,
2013-08-13 06:36:00,79.0,52.6,29.89,NW,315,8.2,8.2,40,0.00,,,0.00,VWS V14.01,2013-08-13 03:36:00,
2013-08-13 06:41:00,79.0,52.6,29.89,NNW,338,4.9,6.4,40,0.00,,,0.00,VWS V14.01,2013-08-13 03:41:00,
2013-08-13 06:46:00,79.0,52.6,29.89,NNW,338,6.0,6.0,40,0.00,,,0.00,VWS V14.01,2013-08-13 03:46:00,
2013-08-13 06:52:00,79.0,52.6,29.89,North,0,4.9,4.9,40,0.00,,,0.00,VWS V14.01,2013-08-13 03:52:00,
2013-08-13 06:58:00,79.0,52.6,29.89,WNW,292,6.2,8.5,40,0.00,,,0.00,VWS V14.01,2013-08-13 03:58:00,
2013-08-13 07:01:00,79.0,52.6,29.89,NNE,22,0.4,0.4,40,0.00,,,0.00,VWS V14.01,2013-08-13 04:01:00,
2013-08-13 07:02:00,79.0,52.6,29.89,NW,315,7.6,7.6,40,0.00,,,0.00,VWS V14.01,2013-08-13 04:02:00,
2013-08-13 07:03:00,79.0,52.6,29.89,NNW,338,4.9,4.9,40,0.00,,,0.00,VWS V14.01,2013-08-13 04:03:00,
2013-08-13 07:08:00,79.0,53.3,29.89,North,0,6.2,6.2,41,0.00,,,0.00,VWS V14.01,2013-08-13 04:08:00,
2013-08-13 07:13:00,79.3,52.9,29.89,NNW,338,4.9,6.9,40,0.00,,,0.00,VWS V14.01,2013-08-13 04:13:00,
2013-08-13 07:18:00,79.2,53.5,29.89,NNW,338,7.3,8.0,41,0.00,,,0.00,VWS V14.01,2013-08-13 04:18:00,
2013-08-13 07:23:00,79.2,53.5,29.89,North,0,2.9,2.9,41,0.00,,,0.00,VWS V14.01,2013-08-13 04:23:00,
2013-08-13 07:29:00,79.2,53.5,29.89,NW,315,5.5,5.5,41,0.00,,,0.00,VWS V14.01,2013-08-13 04:29:00,
2013-08-13 07:34:00,79.0,53.9,29.90,North,0,6.9,6.9,42,0.00,,,0.00,VWS V14.01,2013-08-13 04:34:00,
2013-08-13 07:39:00,79.3,54.2,29.90,North,0,5.8,5.8,42,0.00,,,0.00,VWS V14.01,2013-08-13 04:39:00,
2013-08-13 07:44:00,79.3,54.2,29.90,NNW,338,6.9,8.9,42,0.00,,,0.00,VWS V14.01,2013-08-13 04:44:00,
2013-08-13 07:49:00,79.5,54.4,29.90,North,0,4.6,6.9,42,0.00,,,0.00,VWS V14.01,2013-08-13 04:49:00,
2013-08-13 07:54:00,79.7,54.6,29.89,NNW,338,7.1,7.1,42,0.00,,,0.00,VWS V14.01,2013-08-13 04:54:00,
2013-08-13 07:59:00,79.7,54.6,29.89,NNW,338,6.7,6.7,42,0.00,,,0.00,VWS V14.01,2013-08-13 04:59:00,
2013-08-13 08:05:00,79.9,54.8,29.89,NNW,338,7.1,7.1,42,0.00,,,0.00,VWS V14.01,2013-08-13 05:05:00,
2013-08-13 08:10:00,80.1,54.9,29.90,NNW,338,4.9,4.9,42,0.00,,,0.00,VWS V14.01,2013-08-13 05:10:00,
2013-08-13 08:15:00,80.4,55.2,29.90,NNW,338,4.9,4.9,42,0.00,,,0.00,VWS V14.01,2013-08-13 05:15:00,
2013-08-13 08:20:00,80.8,54.9,29.90,NNW,338,5.3,5.3,41,0.00,,,0.00,VWS V14.01,2013-08-13 05:20:00,
2013-08-13 08:25:00,80.8,54.9,29.90,North,0,3.1,7.3,41,0.00,,,0.00,VWS V14.01,2013-08-13 05:25:00,
2013-08-13 08:30:00,81.1,54.5,29.90,ENE,68,2.9,2.9,40,0.00,,,0.00,VWS V14.01,2013-08-13 05:30:00,
2013-08-13 08:35:00,81.5,55.5,29.90,NNE,22,5.8,5.8,41,0.00,,,0.00,VWS V14.01,2013-08-13 05:35:00,
2013-08-13 08:40:00,81.7,55.7,29.90,NNW,338,3.1,3.1,41,0.00,,,0.00,VWS V14.01,2013-08-13 05:40:00,
2013-08-13 08:45:00,82.0,55.3,29.90,North,0,1.5,1.5,40,0.00,,,0.00,VWS V14.01,2013-08-13 05:45:00,
2013-08-13 08:50:00,82.2,55.5,29.90,NNE,22,4.0,4.0,40,0.00,,,0.00,VWS V14.01,2013-08-13 05:50:00,
2013-08-13 08:55:00,82.4,55.0,29.90,North,0,4.0,4.0,39,0.00,,,0.00,VWS V14.01,2013-08-13 05:55:00,
2013-08-13 09:00:00,82.6,55.8,29.90,North,0,0.0,0.0,40,0.00,,,0.00,VWS V14.01,2013-08-13 06:00:00,
2013-08-13 09:05:00,82.9,56.1,29.90,North,0,7.6,8.0,40,0.00,,,0.00,VWS V14.01,2013-08-13 06:05:00,
2013-08-13 09:10:00,83.1,56.3,29.90,NNW,338,6.4,6.4,40,0.00,,,0.00,VWS V14.01,2013-08-13 06:10:00,
2013-08-13 09:15:00,83.3,56.5,29.90,North,0,2.4,2.4,40,0.00,,,0.00,VWS V14.01,2013-08-13 06:15:00,
2013-08-13 09:20:00,83.5,56.6,29.90,NE,45,0.0,1.5,40,0.00,,,0.00,VWS V14.01,2013-08-13 06:20:00,
2013-08-13 09:25:00,83.7,56.8,29.90,North,0,4.9,7.3,40,0.00,,,0.00,VWS V14.01,2013-08-13 06:25:00,
2013-08-13 09:30:00,83.8,56.9,29.90,NNE,22,0.0,0.0,40,0.00,,,0.00,VWS V14.01,2013-08-13 06:30:00,
2013-08-13 09:35:00,84.2,56.5,29.90,NNE,22,6.4,6.4,39,0.00,,,0.00,VWS V14.01,2013-08-13 06:35:00,
2013-08-13 09:40:00,84.2,56.5,29.90,NNW,338,4.6,4.6,39,0.00,,,0.00,VWS V14.01,2013-08-13 06:40:00,
2013-08-13 09:45:00,84.6,56.2,29.90,NW,315,0.0,0.0,38,0.00,,,0.00,VWS V14.01,2013-08-13 06:45:00,
2013-08-13 09:50:00,85.1,55.9,29.89,NNE,22,0.6,5.3,37,0.00,,,0.00,VWS V14.01,2013-08-13 06:50:00,
2013-08-13 09:56:00,85.5,56.2,29.90,NNE,22,0.8,0.8,37,0.00,,,0.00,VWS V14.01,2013-08-13 06:56:00,
2013-08-13 10:01:00,85.1,55.9,29.90,NNE,22,3.1,3.1,37,0.00,,,0.00,VWS V14.01,2013-08-13 07:01:00,
2013-08-13 10:06:00,85.3,56.1,29.91,NE,45,0.0,0.0,37,0.00,,,0.00,VWS V14.01,2013-08-13 07:06:00,
2013-08-13 10:11:00,85.3,55.3,29.91,NE,45,6.4,6.4,36,0.00,,,0.00,VWS V14.01,2013-08-13 07:11:00,
2013-08-13 10:16:00,85.3,55.3,29.91,NE,45,9.6,9.6,36,0.00,,,0.00,VWS V14.01,2013-08-13 07:16:00,
2013-08-13 10:21:00,85.3,56.1,29.91,NE,45,5.3,8.7,37,0.00,,,0.00,VWS V14.01,2013-08-13 07:21:00,
2013-08-13 10:26:00,85.1,55.9,29.91,NNE,22,6.2,6.2,37,0.00,,,0.00,VWS V14.01,2013-08-13 07:26:00,
2013-08-13 10:31:00,85.5,56.2,29.91,NNE,22,6.7,8.2,37,0.00,,,0.00,VWS V14.01,2013-08-13 07:31:00,
2013-08-13 10:36:00,85.3,56.1,29.91,North,0,6.7,7.3,37,0.00,,,0.00,VWS V14.01,2013-08-13 07:36:00,
2013-08-13 10:41:00,85.8,55.8,29.91,NNW,338,8.0,8.0,36,0.00,,,0.00,VWS V14.01,2013-08-13 07:41:00,
2013-08-13 10:46:00,85.6,54.8,29.91,North,0,7.3,7.3,35,0.00,,,0.00,VWS V14.01,2013-08-13 07:46:00,
2013-08-13 10:51:00,86.0,54.4,29.91,NE,45,4.4,4.4,34,0.00,,,0.00,VWS V14.01,2013-08-13 07:51:00,
2013-08-13 10:56:00,86.2,54.5,29.91,NNE,22,4.0,4.0,34,0.00,,,0.00,VWS V14.01,2013-08-13 07:56:00,
2013-08-13 11:01:00,86.5,54.8,29.91,NNE,22,6.7,6.7,34,0.00,,,0.00,VWS V14.01,2013-08-13 08:01:00,
2013-08-13 11:06:00,86.9,54.3,29.91,NNE,22,7.8,7.8,33,0.00,,,0.00,VWS V14.01,2013-08-13 08:06:00,
2013-08-13 11:11:00,86.5,54.8,29.91,NNE,22,6.2,6.2,34,0.00,,,0.00,VWS V14.01,2013-08-13 08:11:00,
2013-08-13 11:16:00,86.7,54.2,29.91,North,0,8.5,9.1,33,0.00,,,0.00,VWS V14.01,2013-08-13 08:16:00,
2013-08-13 11:21:00,86.5,54.8,29.91,NE,45,7.3,8.2,34,0.00,,,0.00,VWS V14.01,2013-08-13 08:21:00,
2013-08-13 11:26:00,86.9,54.3,29.91,NNE,22,5.8,8.0,33,0.00,,,0.00,VWS V14.01,2013-08-13 08:26:00,
2013-08-13 11:31:00,87.1,53.7,29.91,North,0,4.2,8.2,32,0.00,,,0.00,VWS V14.01,2013-08-13 08:31:00,
2013-08-13 11:36:00,87.4,53.9,29.91,NNE,22,5.3,5.3,32,0.00,,,0.00,VWS V14.01,2013-08-13 08:36:00,
2013-08-13 11:41:00,87.4,53.9,29.91,NNE,22,7.8,9.1,32,0.00,,,0.00,VWS V14.01,2013-08-13 08:41:00,
2013-08-13 11:46:00,87.1,53.7,29.91,NE,45,6.2,8.0,32,0.00,,,0.00,VWS V14.01,2013-08-13 08:46:00,
2013-08-13 11:51:00,87.3,52.1,29.91,North,0,6.4,7.6,30,0.00,,,0.00,VWS V14.01,2013-08-13 08:51:00,
2013-08-13 11:56:00,87.4,52.2,29.91,North,0,7.6,7.6,30,0.00,,,0.00,VWS V14.01,2013-08-13 08:56:00,
2013-08-13 12:02:00,87.4,52.2,29.91,NNE,22,9.3,9.3,30,0.00,,,0.00,VWS V14.01,2013-08-13 09:02:00,
2013-08-13 12:07:00,87.4,52.2,29.91,NE,45,8.0,8.0,30,0.00,,,0.00,VWS V14.01,2013-08-13 09:07:00,
2013-08-13 12:12:00,87.8,51.6,29.91,North,0,8.2,8.9,29,0.00,,,0.00,VWS V14.01,2013-08-13 09:12:00,
2013-08-13 12:17:00,87.8,51.6,29.91,North,0,7.3,8.5,29,0.00,,,0.00,VWS V14.01,2013-08-13 09:17:00,
2013-08-13 12:22:00,87.6,51.4,29.91,NNE,22,7.1,7.1,29,0.00,,,0.00,VWS V14.01,2013-08-13 09:22:00,
2013-08-13 12:27:00,87.8,51.6,29.91,NE,45,7.6,7.6,29,0.00,,,0.00,VWS V14.01,2013-08-13 09:27:00,
2013-08-13 12:32:00,88.0,52.7,29.91,NNE,22,6.0,6.2,30,0.00,,,0.00,VWS V14.01,2013-08-13 09:32:00,
2013-08-13 12:37:00,88.0,53.6,29.90,NE,45,5.5,7.1,31,0.00,,,0.00,VWS V14.01,2013-08-13 09:37:00,
2013-08-13 12:42:00,88.3,53.8,29.90,NNE,22,10.7,10.7,31,0.00,,,0.00,VWS V14.01,2013-08-13 09:42:00,
2013-08-13 12:47:00,88.2,53.7,29.91,NNE,22,5.5,5.5,31,0.00,,,0.00,VWS V14.01,2013-08-13 09:47:00,
2013-08-13 12:52:00,88.3,52.0,29.90,NE,45,5.8,8.5,29,0.00,,,0.00,VWS V14.01,2013-08-13 09:52:00,
2013-08-13 12:57:00,88.5,52.2,29.90,East,90,7.3,7.3,29,0.00,,,0.00,VWS V14.01,2013-08-13 09:57:00,
2013-08-13 13:02:00,88.3,52.0,29.90,NE,45,7.3,7.3,29,0.00,,,0.00,VWS V14.01,2013-08-13 10:02:00,
2013-08-13 13:07:00,88.7,51.4,29.90,NE,45,8.0,8.0,28,0.00,,,0.00,VWS V14.01,2013-08-13 10:07:00,
2013-08-13 13:12:00,88.7,51.4,29.90,NE,45,7.3,7.3,28,0.00,,,0.00,VWS V14.01,2013-08-13 10:12:00,
2013-08-13 13:17:00,88.9,50.6,29.90,NE,45,8.2,8.2,27,0.00,,,0.00,VWS V14.01,2013-08-13 10:17:00,
2013-08-13 13:22:00,88.9,50.6,29.90,NNW,338,5.1,8.2,27,0.00,,,0.00,VWS V14.01,2013-08-13 10:22:00,
2013-08-13 13:27:00,88.9,50.6,29.90,NE,45,7.3,10.0,27,0.00,,,0.00,VWS V14.01,2013-08-13 10:27:00,
2013-08-13 13:33:00,88.9,51.6,29.90,NNW,338,5.8,5.8,28,0.00,,,0.00,VWS V14.01,2013-08-13 10:33:00,
2013-08-13 13:38:00,89.4,51.0,29.90,North,0,8.2,8.2,27,0.00,,,0.00,VWS V14.01,2013-08-13 10:38:00,
2013-08-13 13:43:00,89.1,50.8,29.90,NNE,22,9.8,9.8,27,0.00,,,0.00,VWS V14.01,2013-08-13 10:43:00,
2013-08-13 13:48:00,89.2,50.8,29.90,NNW,338,6.4,6.4,27,0.00,,,0.00,VWS V14.01,2013-08-13 10:48:00,
2013-08-13 13:53:00,89.2,51.8,29.90,NNE,22,8.7,8.7,28,0.00,,,0.00,VWS V14.01,2013-08-13 10:53:00,
2013-08-13 13:58:00,89.1,51.8,29.90,NNE,22,4.0,6.4,28,0.00,,,0.00,VWS V14.01,2013-08-13 10:58:00,
2013-08-13 14:03:00,89.6,52.2,29.90,NE,45,8.5,8.5,28,0.00,,,0.00,VWS V14.01,2013-08-13 11:03:00,
2013-08-13 14:08:00,89.6,52.2,29.90,NE,45,8.2,8.9,28,0.00,,,0.00,VWS V14.01,2013-08-13 11:08:00,
2013-08-13 14:13:00,89.6,52.2,29.89,NNE,22,2.0,2.0,28,0.00,,,0.00,VWS V14.01,2013-08-13 11:13:00,
2013-08-13 14:18:00,90.0,51.5,29.89,NW,315,0.8,0.8,27,0.00,,,0.00,VWS V14.01,2013-08-13 11:18:00,
2013-08-13 14:24:00,89.6,52.2,29.89,North,0,8.7,8.9,28,0.00,,,0.00,VWS V14.01,2013-08-13 11:24:00,
2013-08-13 14:29:00,89.2,51.8,29.89,NNE,22,9.8,10.7,28,0.00,,,0.00,VWS V14.01,2013-08-13 11:29:00,
2013-08-13 14:31:00,89.2,51.8,29.90,NNE,22,10.0,10.0,28,0.00,,,0.00,VWS V14.01,2013-08-13 11:31:00,
2013-08-13 14:36:00,89.6,52.2,29.89,NNE,22,7.3,7.8,28,0.00,,,0.00,VWS V14.01,2013-08-13 11:36:00,
2013-08-13 14:41:00,89.6,52.2,29.89,NE,45,7.6,10.2,28,0.00,,,0.00,VWS V14.01,2013-08-13 11:41:00,
2013-08-13 14:46:00,89.6,52.2,29.89,NNE,22,8.7,8.7,28,0.00,,,0.00,VWS V14.01,2013-08-13 11:46:00,
2013-08-13 14:51:00,89.4,52.0,29.89,NNE,22,6.7,9.1,28,0.00,,,0.00,VWS V14.01,2013-08-13 11:51:00,
2013-08-13 14:57:00,89.4,52.0,29.89,NNE,22,6.9,6.9,28,0.00,,,0.00,VWS V14.01,2013-08-13 11:57:00,
2013-08-13 15:02:00,89.6,52.2,29.88,NNE,22,5.3,8.2,28,0.00,,,0.00,VWS V14.01,2013-08-13 12:02:00,
2013-08-13 15:07:00,89.8,52.3,29.88,NNE,22,5.8,6.4,28,0.00,,,0.00,VWS V14.01,2013-08-13 12:07:00,
2013-08-13 15:12:00,90.0,52.5,29.88,NNE,22,8.0,8.0,28,0.00,,,0.00,VWS V14.01,2013-08-13 12:12:00,
2013-08-13 15:17:00,90.0,52.5,29.88,NNE,22,7.3,7.3,28,0.00,,,0.00,VWS V14.01,2013-08-13 12:17:00,
2013-08-13 15:22:00,90.1,52.6,29.88,NE,45,8.0,8.0,28,0.00,,,0.00,VWS V14.01,2013-08-13 12:22:00,
2013-08-13 15:27:00,90.1,52.6,29.88,NNE,22,10.0,10.0,28,0.00,,,0.00,VWS V14.01,2013-08-13 12:27:00,
2013-08-13 15:32:00,89.8,52.3,29.88,NNE,22,6.7,10.5,28,0.00,,,0.00,VWS V14.01,2013-08-13 12:32:00,
2013-08-13 15:37:00,89.6,52.2,29.88,NNE,22,9.6,9.6,28,0.00,,,0.00,VWS V14.01,2013-08-13 12:37:00,
2013-08-13 15:42:00,89.6,52.2,29.88,NE,45,8.7,8.7,28,0.00,,,0.00,VWS V14.01,2013-08-13 12:42:00,
2013-08-13 15:47:00,89.6,52.2,29.88,NE,45,9.3,9.8,28,0.00,,,0.00,VWS V14.01,2013-08-13 12:47:00,
2013-08-13 15:52:00,89.4,52.0,29.88,NNE,22,5.3,6.0,28,0.00,,,0.00,VWS V14.01,2013-08-13 12:52:00,
2013-08-13 15:57:00,89.8,52.3,29.88,NE,45,8.2,9.3,28,0.00,,,0.00,VWS V14.01,2013-08-13 12:57:00,
2013-08-13 16:02:00,89.6,52.2,29.88,NNE,22,8.5,10.5,28,0.00,,,0.00,VWS V14.01,2013-08-13 13:02:00,
2013-08-13 16:07:00,89.4,52.0,29.88,NNE,22,6.4,6.4,28,0.00,,,0.00,VWS V14.01,2013-08-13 13:07:00,
2013-08-13 16:12:00,89.6,51.2,29.88,North,0,6.9,8.0,27,0.00,,,0.00,VWS V14.01,2013-08-13 13:12:00,
2013-08-13 16:17:00,89.6,51.2,29.87,NNE,22,6.9,8.0,27,0.00,,,0.00,VWS V14.01,2013-08-13 13:17:00,
2013-08-13 16:22:00,89.6,52.2,29.87,NNE,22,7.1,7.1,28,0.00,,,0.00,VWS V14.01,2013-08-13 13:22:00,
2013-08-13 16:27:00,89.6,51.2,29.88,NE,45,6.0,8.9,27,0.00,,,0.00,VWS V14.01,2013-08-13 13:27:00,
2013-08-13 16:32:00,89.2,51.8,29.88,NE,45,7.6,7.6,28,0.00,,,0.00,VWS V14.01,2013-08-13 13:32:00,
2013-08-13 16:38:00,89.2,51.8,29.88,ENE,68,7.3,7.3,28,0.00,,,0.00,VWS V14.01,2013-08-13 13:38:00,
2013-08-13 16:43:00,89.2,49.8,29.88,NNE,22,7.6,7.6,26,0.00,,,0.00,VWS V14.01,2013-08-13 13:43:00,
2013-08-13 16:48:00,89.2,49.8,29.87,NNE,22,8.2,8.2,26,0.00,,,0.00,VWS V14.01,2013-08-13 13:48:00,
2013-08-13 16:53:00,88.9,51.6,29.87,NNE,22,7.6,7.6,28,0.00,,,0.00,VWS V14.01,2013-08-13 13:53:00,
2013-08-13 16:58:00,89.2,50.8,29.87,North,0,9.1,9.1,27,0.00,,,0.00,VWS V14.01,2013-08-13 13:58:00,
2013-08-13 17:03:00,89.1,50.8,29.87,NNE,22,9.8,9.8,27,0.00,,,0.00,VWS V14.01,2013-08-13 14:03:00,
2013-08-13 17:08:00,89.2,50.8,29.87,NNE,22,6.9,8.9,27,0.00,,,0.00,VWS V14.01,2013-08-13 14:08:00,
2013-08-13 17:13:00,89.1,50.8,29.87,NNE,22,6.9,7.8,27,0.00,,,0.00,VWS V14.01,2013-08-13 14:13:00,
2013-08-13 17:18:00,89.1,51.8,29.87,North,0,5.5,5.5,28,0.00,,,0.00,VWS V14.01,2013-08-13 14:18:00,
2013-08-13 17:23:00,89.2,51.8,29.87,NE,45,6.4,8.5,28,0.00,,,0.00,VWS V14.01,2013-08-13 14:23:00,
2013-08-13 17:28:00,89.2,51.8,29.87,NNE,22,4.0,4.0,28,0.00,,,0.00,VWS V14.01,2013-08-13 14:28:00,
2013-08-13 17:33:00,89.4,51.0,29.87,NE,45,3.5,3.5,27,0.00,,,0.00,VWS V14.01,2013-08-13 14:33:00,
2013-08-13 17:38:00,89.4,51.0,29.87,NE,45,0.0,4.6,27,0.00,,,0.00,VWS V14.01,2013-08-13 14:38:00,
2013-08-13 17:43:00,89.4,51.0,29.87,North,0,5.1,5.1,27,0.00,,,0.00,VWS V14.01,2013-08-13 14:43:00,
2013-08-13 17:48:00,89.1,49.8,29.87,NE,45,6.2,6.2,26,0.00,,,0.00,VWS V14.01,2013-08-13 14:48:00,
2013-08-13 17:53:00,89.1,50.8,29.87,NNE,22,1.7,1.7,27,0.00,,,0.00,VWS V14.01,2013-08-13 14:53:00,
2013-08-13 17:58:00,88.9,49.6,29.87,NNE,22,4.6,6.0,26,0.00,,,0.00,VWS V14.01,2013-08-13 14:58:00,
2013-08-13 18:03:00,88.9,49.6,29.87,NE,45,9.1,9.1,26,0.00,,,0.00,VWS V14.01,2013-08-13 15:03:00,
2013-08-13 18:08:00,88.9,49.6,29.87,NE,45,3.3,3.3,26,0.00,,,0.00,VWS V14.01,2013-08-13 15:08:00,
2013-08-13 18:14:00,88.7,49.4,29.86,NE,45,3.1,3.1,26,0.00,,,0.00,VWS V14.01,2013-08-13 15:14:00,
2013-08-13 18:19:00,88.9,49.6,29.86,NNE,22,5.5,5.5,26,0.00,,,0.00,VWS V14.01,2013-08-13 15:19:00,
2013-08-13 18:24:00,88.5,49.2,29.87,NE,45,7.8,7.8,26,0.00,,,0.00,VWS V14.01,2013-08-13 15:24:00,
2013-08-13 18:29:00,88.5,49.2,29.86,NE,45,4.4,5.8,26,0.00,,,0.00,VWS V14.01,2013-08-13 15:29:00,
2013-08-13 18:34:00,88.5,48.2,29.86,NE,45,4.9,4.9,25,0.00,,,0.00,VWS V14.01,2013-08-13 15:34:00,
2013-08-13 18:39:00,88.3,48.0,29.86,NE,45,0.0,0.0,25,0.00,,,0.00,VWS V14.01,2013-08-13 15:39:00,
2013-08-13 18:44:00,88.3,49.1,29.86,NNE,22,3.8,3.8,26,0.00,,,0.00,VWS V14.01,2013-08-13 15:44:00,
2013-08-13 18:49:00,88.3,48.0,29.86,NNE,22,4.0,4.0,25,0.00,,,0.00,VWS V14.01,2013-08-13 15:49:00,
2013-08-13 18:54:00,88.0,48.8,29.86,NNE,22,6.2,6.2,26,0.00,,,0.00,VWS V14.01,2013-08-13 15:54:00,
2013-08-13 18:59:00,87.8,49.7,29.86,NNE,22,2.0,2.0,27,0.00,,,0.00,VWS V14.01,2013-08-13 15:59:00,
2013-08-13 19:04:00,87.8,49.7,29.86,NNE,22,2.4,2.4,27,0.00,,,0.00,VWS V14.01,2013-08-13 16:04:00,
2013-08-13 19:09:00,87.4,49.3,29.86,NNE,22,4.6,6.0,27,0.00,,,0.00,VWS V14.01,2013-08-13 16:09:00,
2013-08-13 19:14:00,87.4,48.3,29.86,NE,45,5.8,8.9,26,0.00,,,0.00,VWS V14.01,2013-08-13 16:14:00,
2013-08-13 19:19:00,87.3,48.2,29.86,NE,45,0.0,4.9,26,0.00,,,0.00,VWS V14.01,2013-08-13 16:19:00,
2013-08-13 19:24:00,87.3,48.2,29.86,NNE,22,3.8,5.5,26,0.00,,,0.00,VWS V14.01,2013-08-13 16:24:00,
2013-08-13 19:29:00,87.1,48.1,29.86,NE,45,4.4,4.4,26,0.00,,,0.00,VWS V14.01,2013-08-13 16:29:00,
2013-08-13 19:34:00,87.1,48.1,29.86,NNE,22,0.0,0.0,26,0.00,,,0.00,VWS V14.01,2013-08-13 16:34:00,
2013-08-13 19:39:00,86.9,47.9,29.86,NNE,22,3.3,3.3,26,0.00,,,0.00,VWS V14.01,2013-08-13 16:39:00,
2013-08-13 19:44:00,86.9,47.9,29.86,NNE,22,3.5,3.5,26,0.00,,,0.00,VWS V14.01,2013-08-13 16:44:00,
2013-08-13 19:49:00,86.5,46.5,29.86,NE,45,3.5,6.0,25,0.00,,,0.00,VWS V14.01,2013-08-13 16:49:00,
2013-08-13 19:54:00,86.5,47.5,29.86,NNE,22,0.0,0.6,26,0.00,,,0.00,VWS V14.01,2013-08-13 16:54:00,
2013-08-13 20:00:00,86.2,47.3,29.86,NNE,22,3.1,3.1,26,0.00,,,0.00,VWS V14.01,2013-08-13 17:00:00,
2013-08-13 20:05:00,86.0,47.1,29.86,NNE,22,0.0,0.0,26,0.00,,,0.00,VWS V14.01,2013-08-13 17:05:00,
2013-08-13 20:12:00,85.5,47.7,29.86,NNE,22,1.7,1.7,27,0.00,,,0.00,VWS V14.01,2013-08-13 17:12:00,
2013-08-13 20:17:00,85.3,47.5,29.86,NNE,22,0.8,0.8,27,0.00,,,0.00,VWS V14.01,2013-08-13 17:17:00,
2013-08-13 20:22:00,84.9,48.2,29.86,North,0,0.0,0.0,28,0.00,,,0.00,VWS V14.01,2013-08-13 17:22:00,
2013-08-13 20:28:00,84.6,47.9,29.86,NNE,22,0.0,0.0,28,0.00,,,0.00,VWS V14.01,2013-08-13 17:28:00,
2013-08-13 20:33:00,84.2,48.5,29.86,North,0,1.1,1.1,29,0.00,,,0.00,VWS V14.01,2013-08-13 17:33:00,
2013-08-13 20:38:00,84.0,48.3,29.86,North,0,0.0,0.0,29,0.00,,,0.00,VWS V14.01,2013-08-13 17:38:00,
2013-08-13 20:43:00,83.8,48.2,29.86,North,0,0.0,0.0,29,0.00,,,0.00,VWS V14.01,2013-08-13 17:43:00,
2013-08-13 20:48:00,83.7,49.0,29.86,NNW,338,0.0,0.0,30,0.00,,,0.00,VWS V14.01,2013-08-13 17:48:00,
2013-08-13 20:53:00,83.5,48.8,29.86,NNW,338,0.0,0.0,30,0.00,,,0.00,VWS V14.01,2013-08-13 17:53:00,
2013-08-13 20:58:00,83.3,48.6,29.86,NNW,338,4.2,4.2,30,0.00,,,0.00,VWS V14.01,2013-08-13 17:58:00,
2013-08-13 21:03:00,83.3,48.6,29.86,NNW,338,0.0,0.0,30,0.00,,,0.00,VWS V14.01,2013-08-13 18:03:00,
2013-08-13 21:08:00,82.9,48.3,29.86,NNW,338,0.0,0.0,30,0.00,,,0.00,VWS V14.01,2013-08-13 18:08:00,
2013-08-13 21:13:00,82.8,48.2,29.86,NNW,338,0.0,0.0,30,0.00,,,0.00,VWS V14.01,2013-08-13 18:13:00,
2013-08-13 21:18:00,82.6,48.0,29.86,NNW,338,0.0,0.0,30,0.00,,,0.00,VWS V14.01,2013-08-13 18:18:00,
2013-08-13 21:23:00,82.4,47.8,29.86,NNW,338,0.0,0.0,30,0.00,,,0.00,VWS V14.01,2013-08-13 18:23:00,
2013-08-13 21:28:00,82.2,47.7,29.86,NNW,338,0.0,0.0,30,0.00,,,0.00,VWS V14.01,2013-08-13 18:28:00,
2013-08-13 21:33:00,82.2,47.7,29.86,NW,315,0.0,0.0,30,0.00,,,0.00,VWS V14.01,2013-08-13 18:33:00,
2013-08-13 21:38:00,82.4,47.8,29.87,North,0,4.6,4.6,30,0.00,,,0.00,VWS V14.01,2013-08-13 18:38:00,
2013-08-13 21:41:00,82.4,47.8,29.86,NW,315,2.0,4.4,30,0.00,,,0.00,VWS V14.01,2013-08-13 18:41:00,
2013-08-13 21:46:00,82.6,48.0,29.86,NNW,338,0.0,0.0,30,0.00,,,0.00,VWS V14.01,2013-08-13 18:46:00,
2013-08-13 21:51:00,82.6,48.0,29.87,NNW,338,0.0,0.0,30,0.00,,,0.00,VWS V14.01,2013-08-13 18:51:00,
2013-08-13 21:56:00,82.6,48.0,29.87,NNW,338,0.6,3.8,30,0.00,,,0.00,VWS V14.01,2013-08-13 18:56:00,
2013-08-13 22:01:00,82.6,48.0,29.87,NNW,338,0.0,0.0,30,0.00,,,0.00,VWS V14.01,2013-08-13 19:01:00,
2013-08-13 22:06:00,82.6,48.0,29.87,NNW,338,0.0,0.0,30,0.00,,,0.00,VWS V14.01,2013-08-13 19:06:00,
2013-08-13 22:11:00,82.6,48.0,29.87,North,0,0.0,0.0,30,0.00,,,0.00,VWS V14.01,2013-08-13 19:11:00,
2013-08-13 22:16:00,82.4,47.8,29.87,North,0,0.0,0.0,30,0.00,,,0.00,VWS V14.01,2013-08-13 19:16:00,
2013-08-13 22:21:00,82.0,47.5,29.87,North,0,0.0,0.0,30,0.00,,,0.00,VWS V14.01,2013-08-13 19:21:00,
2013-08-13 22:27:00,81.7,47.2,29.87,North,0,0.0,0.0,30,0.00,,,0.00,VWS V14.01,2013-08-13 19:27:00,
2013-08-13 22:32:00,81.7,48.1,29.87,North,0,0.0,0.0,31,0.00,,,0.00,VWS V14.01,2013-08-13 19:32:00,
2013-08-13 22:37:00,81.5,48.0,29.87,North,0,0.0,0.0,31,0.00,,,0.00,VWS V14.01,2013-08-13 19:37:00,
2013-08-13 22:42:00,81.5,48.0,29.87,NNW,338,0.0,0.0,31,0.00,,,0.00,VWS V14.01,2013-08-13 19:42:00,
2013-08-13 22:47:00,81.9,50.0,29.87,NNE,22,0.0,0.0,33,0.00,,,0.00,VWS V14.01,2013-08-13 19:47:00,
2013-08-13 22:52:00,82.0,48.4,29.86,NNE,22,0.0,0.0,31,0.00,,,0.00,VWS V14.01,2013-08-13 19:52:00,
2013-08-13 22:57:00,81.9,48.3,29.86,NNE,22,0.0,0.0,31,0.00,,,0.00,VWS V14.01,2013-08-13 19:57:00,
2013-08-13 23:02:00,81.9,49.1,29.86,North,0,0.0,0.0,32,0.00,,,0.00,VWS V14.01,2013-08-13 20:02:00,
2013-08-13 23:07:00,81.7,49.0,29.87,NNW,338,0.0,0.0,32,0.00,,,0.00,VWS V14.01,2013-08-13 20:07:00,
2013-08-13 23:12:00,81.9,50.0,29.86,NNE,22,3.5,3.5,33,0.00,,,0.00,VWS V14.01,2013-08-13 20:12:00,
2013-08-13 23:17:00,82.4,50.4,29.86,ENE,68,0.0,0.0,33,0.00,,,0.00,VWS V14.01,2013-08-13 20:17:00,
2013-08-13 23:22:00,82.6,50.6,29.86,NNW,338,5.3,5.3,33,0.00,,,0.00,VWS V14.01,2013-08-13 20:22:00,
2013-08-13 23:27:00,82.9,50.8,29.86,NW,315,4.0,4.0,33,0.00,,,0.00,VWS V14.01,2013-08-13 20:27:00,
2013-08-13 23:32:00,82.9,50.8,29.86,NNW,338,0.6,0.6,33,0.00,,,0.00,VWS V14.01,2013-08-13 20:32:00,
2013-08-13 23:37:00,83.1,51.0,29.86,NNW,338,0.0,0.0,33,0.00,,,0.00,VWS V14.01,2013-08-13 20:37:00,
2013-08-13 23:42:00,82.4,50.4,29.86,NW,315,0.0,0.0,33,0.00,,,0.00,VWS V14.01,2013-08-13 20:42:00,
2013-08-13 23:47:00,82.2,51.0,29.86,NW,315,0.0,0.0,34,0.00,,,0.00,VWS V14.01,2013-08-13 20:47:00,
2013-08-13 23:52:00,82.4,51.2,29.86,NNE,22,0.0,0.0,34,0.00,,,0.00,VWS V14.01,2013-08-13 20:52:00,
2013-08-13 23:58:00,82.4,50.4,29.86,NNW,338,0.4,0.4,33,0.00,,,0.00,VWS V14.01,2013-08-13 20:58:00,